Location: O'Brien
(30.0517°N, 82.9900°W)
Time: 14:35:15
(UTC-04:00)

N. Korean satellite - Visible Passes

Search period start: 23 March 2019 00:00
Search period end: 02 April 2019 00:00
Orbit: 456 x 510 km, 97.2° (Epoch: 22 March)

Date Brightness Start Highest point End Pass type
(mag) Time Alt. Az. Time Alt. Az. Time Alt. Az.
23 Mar 10.2 06:38:47 10° ENE 06:40:08 12° E 06:41:28 10° ESE visible
26 Mar 9.6 06:56:18 10° NE 06:59:09 22° E 07:02:01 10° SSE visible
30 Mar 9.8 06:50:36 10° NE 06:53:12 18° E 06:55:50 10° SE visible
